Change the Weather History Date:

Friday, October 4, 2013

  Actual Average Record
Temperature  
Mean Temperature 58 °F -  
Max Temperature 60 °F 67 °F 77 °F (1997)
Min Temperature 55 °F 50 °F 41 °F (2002)
Degree Days  
Heating Degree Days 8    
Growing Degree Days 8 (Base 50)    
Moisture  
Dew Point 55 °F    
Average Humidity 89    
Maximum Humidity 94    
Minimum Humidity 73    
Precipitation  
Precipitation 0.08 in - - ()
Sea Level Pressure  
Sea Level Pressure 30.15 in    
Wind  
Wind Speed 5 mph ()    
Max Wind Speed 8 mph    
Max Gust Speed -    
Visibility 6.0 miles    
Events Rain    
Averages and records for this station are not official NWS values.
T = Trace of Precipitation, MM = Missing Value Source: Averaged Metar Reports

Daily Weather History Graph

Daily Weather History Graph

Search for Another Location

Airport or City:

Trip Planner

Search our weather history database for the weather conditions in past years. The results will help you decide how hot, cold, wet, or windy it might be!

Date:

Astronomy

Oct. 04, 2013 Rise Set
Actual Time 6:03 AM SAST 6:35 PM SAST
Civil Twilight 5:38 AM SAST 7:00 PM SAST
Nautical Twilight 5:08 AM SAST 7:30 PM SAST
Astronomical Twilight 4:38 AM SAST 8:00 PM SAST
Moon 5:26 AM SAST (10/4) 6:12 PM SAST (10/4)
Length of Visible Light 13h 22m
Length of Day
12h 32m
Waning Crescent, 0% of the Moon is Illuminated
Oct 4
Waning Crescent
Oct 5
New
Oct 12
First Quarter
Oct 19
Full
Oct 27
Last Quarter

Hourly Weather History & Observations

Time (SAST) Temp. Dew Point Humidity Pressure Visibility Wind Dir Wind Speed Gust Speed Precip Events Conditions
12:00 AM 59.0 °F 57.2 °F 94% 30.12 in 5.0 mi WNW 4.6 mph - N/A Rain Light Rain
1:00 AM 59.0 °F 55.4 °F 88% 30.12 in 5.6 mi WNW 6.9 mph - N/A   Overcast
2:00 AM 58 °F 55 °F 88% 30.12 in 3 mi West 8.1 mph - -  
2:00 AM 57.2 °F 55.4 °F 94% 30.12 in - West 8.1 mph - N/A   Heavy Drizzle
3:00 AM 57.2 °F 55.4 °F 94% 30.09 in 3.1 mi West 5.8 mph - N/A   Drizzle
5:00 AM 55.4 °F 53.6 °F 94% 30.12 in 3.7 mi WNW 8.1 mph - N/A   Light Drizzle
7:00 AM 55.4 °F 53.6 °F 94% 30.15 in 6.2 mi NW 6.9 mph - N/A   Mostly Cloudy
8:00 AM 56 °F 54 °F 90% 30.18 in 12 mi NW 6.9 mph - -   Partly Cloudy
8:00 AM 55.4 °F 53.6 °F 94% 30.15 in 6.2 mi NNW 8.1 mph - N/A   Mostly Cloudy
9:00 AM 57.2 °F 53.6 °F 88% 30.18 in 6.2 mi NW 8.1 mph - N/A   Mostly Cloudy
10:00 AM 59.0 °F 53.6 °F 82% 30.18 in 6.2 mi NW 5.8 mph - N/A   Scattered Clouds
11:00 AM 60 °F 54 °F 73% 30.19 in 12 mi West 5.8 mph - -   Overcast
11:00 AM 60.8 °F 53.6 °F 77% 30.18 in 6.2 mi West 5.8 mph - N/A   Overcast
12:00 PM 57.2 °F 55.4 °F 94% 30.18 in - SSW 8.1 mph - N/A Rain Light Rain
1:00 PM 59.0 °F 55.4 °F 88% 30.15 in 6.2 mi SSW 3.5 mph - N/A   Mostly Cloudy
2:00 PM 59 °F 55 °F 82% 30.18 in 4 mi SW 8.1 mph - - Rain Light Drizzle
2:00 PM 59.0 °F 55.4 °F 88% 30.15 in 3.7 mi SW 8.1 mph - N/A   Light Drizzle
3:00 PM 57.2 °F 55.4 °F 94% 30.15 in 1.9 mi SSW 3.5 mph - N/A Rain Light Rain
4:00 PM 59.0 °F 55.4 °F 88% 30.12 in 1.9 mi Calm Calm - N/A   Light Drizzle
5:00 PM 58 °F 56 °F 90% 30.14 in 12 mi 2.3 mph - -   Partly Cloudy
5:00 PM 59.0 °F 55.4 °F 88% 30.12 in 6.2 mi Variable 2.3 mph - N/A   Mostly Cloudy
6:00 PM 59.0 °F 55.4 °F 88% 30.15 in 6.2 mi West 3.5 mph - N/A   Mostly Cloudy
7:00 PM 59.0 °F 55.4 °F 88% 30.15 in 2.2 mi Variable 2.3 mph - N/A Rain Light Rain
8:00 PM 58 °F 56 °F 89% 30.17 in 12 mi WNW 2.3 mph - -   Partly Cloudy
8:00 PM 57.2 °F 55.4 °F 94% 30.15 in 6.2 mi Variable 2.3 mph - N/A   Mostly Cloudy
9:00 PM 57.2 °F 55.4 °F 94% 30.15 in 6.2 mi WNW 3.5 mph - N/A   Overcast
10:00 PM 57.2 °F 55.4 °F 94% 30.15 in 6.2 mi WSW 3.5 mph - N/A   Overcast
11:00 PM 57.2 °F 55.4 °F 94% 30.12 in 5.0 mi West 4.6 mph - N/A   Mostly Cloudy